Location: Belleu
(49.3619°N, 3.3355°E)
Time: 10:58:01
(UTC+00:00)

Daily predictions for brighter satellites

Satellite Brightness Start Highest point End
(mag) Time Altitude Azimuth Time Altitude Azimuth Time Altitude Azimuth
ATLAS 2AS CENTAUR R/B 3.9 16:26:15 10° NW 16:31:47 25° N 16:37:16 10° ENE
Cosmos 1844 Rocket 4.0 16:29:06 10° WSW 16:34:10 35° NW 16:39:18 10° NNE
UNK 4.3 16:30:40 10° NNE 16:35:01 39° E 16:39:19 10° SSE
Cosmos 1459 Rocket 4.3 16:29:32 10° SSW 16:35:50 78° W 16:42:15 10° N
YAOGAN 1 4.3 16:34:19 10° E 16:36:10 13° ENE 16:37:59 10° NNE
DNEPR-1 R/B 4.4 16:31:51 10° NW 16:36:15 61° SW 16:41:20 10° SSE
COSMOS 2406 4.4 16:36:51 10° N 16:41:10 21° NE 16:45:27 10° E
Cosmos 2084 Rocket 3.4 16:37:21 10° SW 16:41:32 88° SE 16:45:45 10° NE
ATLAS CENTAUR R/B 2.6 16:41:07 10° W 16:44:05 26° NW 16:47:04 10° NNE
Cosmos 1441 Rocket 3.4 16:42:34 10° NNW 16:45:53 62° W 16:49:12 10° S
SAR-Lupe-4 3.8 16:42:59 10° SE 16:46:25 45° ENE 16:49:51 10° N
Cosmos 1833 Rocket 3.0 16:41:05 10° NNW 16:46:44 75° WSW 16:52:21 10° SSE
ARIANE 5 R/B 2.6 16:42:17 10° SE 16:47:05 52° ENE 16:51:57 10° N
USA 215 3.4 16:48:05 10° SE 16:54:37 83° SSW 17:01:13 10° WNW
Timation 1 Rocket 4.4 16:49:14 10° NNW 16:55:08 57° NE 17:00:59 10° SE
IRS-P3 4.3 16:52:47 10° SE 16:57:52 48° ENE 17:02:59 10° N
MOS 1 Rocket 3.7 16:56:05 10° SE 17:00:00 35° ENE 17:04:08 10° N
ATLAS 5 CENTAUR R/B 2.5 16:56:13 10° NW 17:00:30 57° SW 17:05:48 10° SSE
Cosmos 1484 Rocket 4.3 17:00:47 10° SSW 17:04:03 37° W 17:07:22 10° NNW
Iridium 4 Rocket 4.4 17:01:26 10° SSW 17:06:17 47° W 17:10:46 10° N
Resurs 01 Rocket 3.6 17:08:58 11° NE 17:08:58 11° NE 17:09:48 10° NNE
SJ-6F 4.5 17:04:41 10° SE 17:08:27 47° ENE 17:12:14 10° N
Cosmos 2233 Rocket 4.1 17:02:18 10° S 17:08:37 89° E 17:15:00 10° N
RESURS DK-1 2.2 17:05:17 10° NNW 17:09:17 65° ENE 17:13:15 10° SE
Cosmos 1602 4.1 17:06:55 10° NNE 17:09:33 25° ENE 17:12:10 10° SE
Cosmos 407 Rocket 3.7 17:04:41 10° S 17:09:40 50° ESE 17:14:38 10° NNE
Cosmos 2061 Rocket 4.0 17:04:50 10° S 17:11:08 85° E 17:17:24 10° N
Geosat FO 4.4 17:12:23 10° SE 17:15:06 41° NE 17:17:51 10° NNW
ISS -3.2 17:12:03 10° SW 17:15:15 44° SSE 17:17:12 20° E
Cosmos 1782 Rocket 3.9 17:10:59 10° SSW 17:15:24 71° W 17:19:51 10° N
CZ-2D R/B 2.6 17:13:07 10° SSE 17:16:16 85° ENE 17:19:26 10° NNW
Cosmos 1869 3.0 17:13:43 10° S 17:17:09 53° E 17:20:35 10° NNE
ERS-1 4.4 17:13:07 10° SSE 17:18:15 79° ENE 17:23:23 10° NNW
USA 281 4.3 17:15:06 15° E 17:18:40 23° NE 17:23:37 10° N
SPOT 1/Viking Rocket 3.8 17:14:11 10° SE 17:19:02 43° ENE 17:23:57 10° N
Cosmos 1300 Rocket 4.2 17:15:17 10° SSW 17:19:37 58° WNW 17:23:56 10° N
COSMO-SKYMED 1 3.6 17:21:26 20° ENE 17:22:36 22° E 17:25:51 10° SE
SJ-12 3.7 17:19:16 10° SSE 17:23:04 85° WSW 17:26:53 10° NNW
Cosmos 1464 Rocket 4.4 17:18:53 10° SSE 17:24:37 39° E 17:30:20 10° NNE
AQUARIUS 4.0 17:22:28 10° SSE 17:26:52 83° ENE 17:31:18 10° NNW
SL-12 R/B(2) 4.4 17:19:44 10° SSW 17:27:36 68° ESE 17:36:59 11° NE
Cosmos 540 Rocket 3.4 17:24:09 10° NNW 17:29:20 88° ENE 17:34:26 10° SSE
BREEZE-M DEB (TANK) 2.4 17:27:05 10° SW 17:29:32 57° SSE 17:32:21 22° E
Cosmos 1400 Rocket 3.7 17:28:01 10° SSE 17:31:11 25° E 17:31:12 25° E
Cosmos 1975 Rocket 3.8 17:28:21 10° NNW 17:32:37 56° W 17:36:53 10° S
Spot 4 Rocket 4.2 17:27:58 10° SE 17:32:50 48° ENE 17:37:45 10° N
Cosmos 1763 Rocket 3.7 17:29:34 10° NNW 17:34:47 73° WSW 17:39:54 10° SSE
Cosmos 1812 1.9 17:33:40 10° S 17:36:31 56° E 17:37:34 32° NE
Cosmos 1140 Rocket 4.3 17:36:35 10° SW 17:41:37 51° WNW 17:46:40 10° NNE
Cosmos 2151 Rocket 3.9 17:37:31 10° SSE 17:41:45 44° E 17:45:29 13° NNE
Cosmos 2058 2.7 17:38:43 10° N 17:42:42 69° E 17:46:39 10° SSE
SMAP 4.4 17:38:36 10° S 17:43:01 43° W 17:47:29 10° NNW
Cosmos 44 Rocket 3.3 17:39:43 10° SSW 17:44:25 63° ESE 17:47:06 26° NE
SKYMED 2 3.6 17:45:23 12° NNE 17:49:25 58° E 17:53:42 10° S
Cosmos 1943 Rocket 2.1 17:43:48 10° SSW 17:49:26 85° ESE 17:54:09 15° NNE
Helios 1A Rocket 3.4 17:51:57 31° SE 17:51:57 31° SE 17:54:12 10° S
Cosmos 1092 Rocket 4.5 17:45:30 10° N 17:51:11 35° ENE 17:54:58 19° ESE
Okean 1 Rocket 3.6 17:47:40 10° SSE 17:51:40 36° E 17:51:43 36° E
CZ-2D R/B 3.3 17:47:45 10° SSE 17:51:53 76° ENE 17:56:07 10° N
SJ-7 4.1 17:48:17 10° SSE 17:51:54 58° ENE 17:55:32 10° N
IRAS Rocket 4.1 17:46:50 10° SSE 17:52:21 70° ENE 17:57:51 10° NNW
Sich 1 Rocket 4.1 17:48:32 10° SSE 17:52:43 38° E 17:53:29 35° ENE
PSLV R/B 3.4 17:49:31 10° SSE 17:53:28 56° ENE 17:57:26 10° N
Cosmos 2082 Rocket 2.1 17:47:51 10° NNW 17:53:30 86° ENE 17:59:07 10° SSE
Cosmos 1072 Rocket 4.3 17:51:37 10° S 17:57:42 72° E 18:03:48 10° NNE
Cosmos 2026 Rocket 4.2 17:52:04 10° N 17:57:49 42° ENE 18:03:36 10° SE
Cosmos 2278 Rocket 2.2 17:52:33 10° SSW 17:58:13 88° WNW 18:02:47 16° NNE
NOAA 6 4.1 17:55:14 10° SE 18:00:15 54° ENE 18:05:15 10° N
Aureole 3 Rocket 2.6 17:58:14 10° SSW 18:01:13 64° W 18:03:11 21° N
BREEZE-M DEB (TANK) 3.3 17:58:27 10° SW 18:01:17 61° SSE 18:03:16 35° E
BREEZE-M DEB (TANK) 2.9 17:59:35 10° WSW 18:02:12 89° SSE 18:04:09 36° ENE
SL-16 R/B 4.3 18:00:03 10° N 18:05:22 30° WNW 18:10:40 10° WSW
Geosat 4.0 18:04:10 34° ESE 18:06:06 56° NE 18:11:01 10° NNW
Cosmos 2251 Rocket 3.4 18:03:44 10° SSW 18:09:01 86° ESE 18:12:38 21° NNE
YAOGAN 1 2.4 18:07:05 10° SSE 18:11:21 89° ENE 18:15:38 10° NNW
Cosmos 371 Rocket 3.3 18:07:58 10° S 18:12:37 51° ESE 18:12:52 51° E
Cosmos 304 Rocket 3.7 18:09:05 10° S 18:13:41 54° ESE 18:13:57 54° E
Cosmos 841 Rocket 3.4 18:09:17 10° NNW 18:14:33 71° ENE 18:17:15 29° SE
SJ 16-02 1.1 18:10:57 10° SSW 18:15:15 71° ESE 18:15:42 64° ENE
SL-19 R/B 4.0 18:10:22 10° SSE 18:15:34 88° WSW 18:20:51 10° NNW
Nadezhda 4 Rocket 4.0 18:13:39 10° N 18:19:59 83° W 18:26:12 10° S
CZ-4C R/B 3.9 18:15:56 10° WNW 18:20:06 22° N 18:22:35 18° NNE
Cosmos 1862 3.7 18:18:47 10° NNW 18:22:21 56° W 18:25:54 10° S
Resurs 1-3 3.6 18:19:02 10° S 18:23:20 75° WSW 18:27:39 10° NNW
ATLAS 2AS CENTAUR R/B 2.9 18:17:50 10° NW 18:24:22 46° NE 18:25:35 42° ENE
COSMOS 2406 3.1 18:20:34 10° NNW 18:26:17 86° ENE 18:29:07 31° SSE
Cosmos 1627 Rocket 4.3 18:22:20 10° N 18:28:26 66° ENE 18:34:34 10° SSE
Cosmos 1656 Rocket 4.0 18:24:07 10° S 18:28:32 44° SE 18:28:32 44° SE
Cosmos 2195 Rocket 4.4 18:27:31 10° N 18:33:52 87° ENE 18:40:14 10° S
Cosmos 1536 Rocket 4.5 18:30:09 10° NNW 18:34:26 49° W 18:38:40 10° SSW
Okean 2 Rocket 3.3 18:32:12 10° SSW 18:36:34 69° W 18:37:52 43° N
Cosmos 1190 Rocket 4.3 18:34:42 10° SW 18:39:57 65° WNW 18:42:26 31° N
Cosmos 2344 3.8 18:34:43 10° NW 18:42:35 81° NE 18:47:32 34° SE
Cosmos 676 Rocket 3.9 18:37:30 10° SSW 18:42:49 87° ESE 18:43:15 76° NE
Resurs 01 Rocket 3.2 18:46:23 25° N 18:46:23 25° N 18:48:13 10° N
Meteor 2-3 Rocket 3.7 18:40:04 10° NNW 18:45:48 83° W 18:49:59 19° S
Cosmos 2297 Rocket 4.5 18:47:33 10° N 18:48:17 11° N 18:48:17 11° N
ISS -1.4 18:48:39 10° W 18:50:07 24° W 18:50:07 24° W
Cosmos 1954 Rocket 4.4 18:47:43 10° SW 18:52:55 62° WNW 18:54:18 46° N
COSMO-SKYMED 1 3.6 18:57:48 39° WNW 18:58:05 40° WNW 19:01:56 10° SW
USA 281 3.0 19:02:00 76° E 19:02:19 77° ENE 19:08:55 10° NNW
Cosmos 1943 Rocket 4.1 19:29:29 10° W 19:33:52 23° NW 19:35:40 20° NNW
Cosmos 2278 Rocket 4.2 19:38:48 10° W 19:43:07 22° NW 19:44:37 20° NNW
SJ 16-02 4.2 19:51:02 10° W 19:52:17 14° WNW 19:52:17 14° WNW
CZ-4C R/B 4.4 20:05:19 10° NW 20:07:33 20° NNW 20:07:33 20° NNW
ATLAS 2AS CENTAUR R/B 3.8 20:08:52 10° NW 20:13:01 37° WNW 20:13:01 37° WNW
